TimeMST,TemperatureF,Dew PointF,Humidity,Sea Level PressureIn,VisibilityMPH,Wind Direction,Wind SpeedMPH,Gust SpeedMPH,PrecipitationIn,Events,Conditions,WindDirDegrees,DateUTC
12:15 AM,39.2,17.6,42,30.28,10.0,SSE,9.2,-,N/A,,Clear,160,2013-10-25 07:15:00
12:35 AM,39.2,19.4,45,30.28,10.0,SSE,10.4,-,N/A,,Clear,160,2013-10-25 07:35:00
12:55 AM,39.2,17.6,42,30.29,10.0,SSE,9.2,-,N/A,,Clear,160,2013-10-25 07:55:00
1:15 AM,39.2,19.4,45,30.29,10.0,SSE,11.5,-,N/A,,Clear,150,2013-10-25 08:15:00
1:35 AM,37.4,17.6,45,30.29,10.0,SSE,11.5,-,N/A,,Clear,150,2013-10-25 08:35:00
1:55 AM,37.4,17.6,45,30.29,10.0,SSE,10.4,-,N/A,,Clear,150,2013-10-25 08:55:00
2:15 AM,37.4,17.6,45,30.29,10.0,SSE,10.4,-,N/A,,Clear,150,2013-10-25 09:15:00
2:35 AM,35.6,17.6,48,30.29,10.0,SSE,10.4,-,N/A,,Clear,150,2013-10-25 09:35:00
2:55 AM,35.6,17.6,48,30.29,10.0,SSE,10.4,-,N/A,,Clear,150,2013-10-25 09:55:00
3:15 AM,35.6,17.6,48,30.29,10.0,SSE,11.5,-,N/A,,Clear,150,2013-10-25 10:15:00
3:35 AM,35.6,17.6,48,30.28,10.0,SSE,11.5,-,N/A,,Clear,160,2013-10-25 10:35:00
3:55 AM,37.4,17.6,45,30.28,10.0,SSE,11.5,-,N/A,,Clear,150,2013-10-25 10:55:00
4:15 AM,39.2,19.4,45,30.28,10.0,SSE,11.5,-,N/A,,Clear,150,2013-10-25 11:15:00
4:35 AM,41.0,19.4,42,30.29,10.0,SSE,11.5,-,N/A,,Clear,150,2013-10-25 11:35:00
4:55 AM,41.0,23.0,49,30.29,10.0,SSE,11.5,-,N/A,,Clear,150,2013-10-25 11:55:00
5:15 AM,39.2,24.8,56,30.29,10.0,SSE,11.5,-,N/A,,Clear,150,2013-10-25 12:15:00
5:35 AM,37.4,24.8,60,30.30,10.0,SSE,11.5,-,N/A,,Clear,160,2013-10-25 12:35:00
5:55 AM,39.2,28.4,65,30.30,10.0,SSE,11.5,-,N/A,,Clear,150,2013-10-25 12:55:00
6:15 AM,41.0,32.0,70,30.31,10.0,SSE,10.4,-,N/A,,Clear,150,2013-10-25 13:15:00
6:35 AM,41.0,32.0,70,30.31,10.0,SSE,10.4,-,N/A,,Clear,150,2013-10-25 13:35:00
6:55 AM,42.8,33.8,70,30.31,10.0,SSE,9.2,-,N/A,,Clear,150,2013-10-25 13:55:00
7:15 AM,42.8,33.8,70,30.32,10.0,East,3.5,-,N/A,,Clear,80,2013-10-25 14:15:00
7:35 AM,44.6,35.6,71,30.33,10.0,East,4.6,-,N/A,,Clear,100,2013-10-25 14:35:00
7:55 AM,48.2,35.6,62,30.33,10.0,ESE,5.8,-,N/A,,Clear,120,2013-10-25 14:55:00
8:15 AM,48.2,37.4,66,30.34,10.0,ESE,3.5,-,N/A,,Clear,120,2013-10-25 15:15:00
8:35 AM,50.0,37.4,62,30.35,10.0,SE,3.5,-,N/A,,Clear,130,2013-10-25 15:35:00
8:55 AM,51.8,37.4,58,30.35,10.0,NE,3.5,-,N/A,,Clear,40,2013-10-25 15:55:00
9:15 AM,53.6,35.6,51,30.35,10.0,Calm,Calm,-,N/A,,Clear,0,2013-10-25 16:15:00
9:35 AM,57.2,32.0,38,30.35,10.0,East,3.5,-,N/A,,Clear,80,2013-10-25 16:35:00
9:55 AM,57.2,32.0,38,30.35,10.0,Calm,Calm,-,N/A,,Clear,0,2013-10-25 16:55:00
10:15 AM,59.0,28.4,31,30.35,10.0,NNW,3.5,-,N/A,,Clear,330,2013-10-25 17:15:00
10:35 AM,59.0,26.6,29,30.35,10.0,WNW,5.8,-,N/A,,Clear,290,2013-10-25 17:35:00
10:55 AM,60.8,26.6,27,30.35,10.0,NW,9.2,-,N/A,,Clear,310,2013-10-25 17:55:00
11:15 AM,60.8,24.8,25,30.35,10.0,NNW,6.9,-,N/A,,Clear,330,2013-10-25 18:15:00
11:35 AM,62.6,26.6,26,30.35,10.0,NNW,8.1,-,N/A,,Clear,330,2013-10-25 18:35:00
11:55 AM,62.6,23.0,22,30.34,10.0,WNW,5.8,16.1,N/A,,Clear,290,2013-10-25 18:55:00
12:15 PM,62.6,24.8,24,30.34,10.0,North,3.5,-,N/A,,Clear,350,2013-10-25 19:15:00
12:35 PM,62.6,21.2,20,30.33,10.0,North,6.9,-,N/A,,Clear,350,2013-10-25 19:35:00
12:55 PM,64.4,21.2,19,30.33,10.0,WNW,3.5,-,N/A,,Clear,300,2013-10-25 19:55:00
1:15 PM,62.6,19.4,19,30.32,10.0,Calm,Calm,-,N/A,,Clear,0,2013-10-25 20:15:00
1:35 PM,64.4,21.2,19,30.32,10.0,WNW,10.4,18.4,N/A,,Clear,290,2013-10-25 20:35:00
1:55 PM,64.4,19.4,18,30.31,10.0,WNW,9.2,-,N/A,,Clear,290,2013-10-25 20:55:00
2:15 PM,64.4,24.8,22,30.31,10.0,NW,10.4,-,N/A,,Scattered Clouds,310,2013-10-25 21:15:00
2:35 PM,64.4,23.0,21,30.31,10.0,WNW,8.1,-,N/A,,Partly Cloudy,300,2013-10-25 21:35:00
2:55 PM,64.4,21.2,19,30.31,10.0,West,4.6,-,N/A,,Clear,260,2013-10-25 21:55:00
3:15 PM,64.4,23.0,21,30.32,10.0,NNW,8.1,-,N/A,,Partly Cloudy,330,2013-10-25 22:15:00
3:35 PM,62.6,24.8,24,30.32,10.0,WNW,10.4,-,N/A,,Clear,290,2013-10-25 22:35:00
3:55 PM,62.6,26.6,26,30.32,10.0,NW,12.7,-,N/A,,Scattered Clouds,310,2013-10-25 22:55:00
4:15 PM,62.6,28.4,27,30.33,10.0,North,10.4,-,N/A,,Partly Cloudy,360,2013-10-25 23:15:00
4:35 PM,60.8,26.6,27,30.33,10.0,North,5.8,-,N/A,,Clear,360,2013-10-25 23:35:00
4:55 PM,59.0,26.6,29,30.33,10.0,North,9.2,-,N/A,,Clear,360,2013-10-25 23:55:00
5:15 PM,59.0,26.6,29,30.33,10.0,NNW,8.1,-,N/A,,Clear,330,2013-10-26 00:15:00
5:35 PM,57.2,23.0,27,30.33,10.0,NNW,6.9,-,N/A,,Clear,330,2013-10-26 00:35:00
5:55 PM,53.6,23.0,30,30.34,10.0,NNW,5.8,-,N/A,,Clear,330,2013-10-26 00:55:00
6:15 PM,51.8,23.0,33,30.35,10.0,North,4.6,-,N/A,,Clear,350,2013-10-26 01:15:00
6:35 PM,51.8,23.0,33,30.36,10.0,Calm,Calm,-,N/A,,Clear,0,2013-10-26 01:35:00
6:55 PM,51.8,23.0,33,30.36,10.0,Calm,Calm,-,N/A,,Clear,0,2013-10-26 01:55:00
7:15 PM,46.4,23.0,40,30.36,10.0,Calm,Calm,-,N/A,,Clear,0,2013-10-26 02:15:00
7:35 PM,42.8,23.0,46,30.37,10.0,SE,3.5,-,N/A,,Clear,140,2013-10-26 02:35:00
7:55 PM,44.6,23.0,43,30.37,10.0,SE,4.6,-,N/A,,Clear,130,2013-10-26 02:55:00
8:15 PM,41.0,23.0,49,30.38,10.0,SE,4.6,-,N/A,,Clear,130,2013-10-26 03:15:00
8:35 PM,39.2,23.0,52,30.38,10.0,ESE,4.6,-,N/A,,Clear,120,2013-10-26 03:35:00
8:55 PM,39.2,23.0,52,30.38,10.0,SE,3.5,-,N/A,,Clear,130,2013-10-26 03:55:00
9:15 PM,39.2,23.0,52,30.38,10.0,ESE,4.6,-,N/A,,Clear,120,2013-10-26 04:15:00
9:35 PM,37.4,23.0,56,30.39,10.0,SE,3.5,-,N/A,,Clear,130,2013-10-26 04:35:00
9:55 PM,37.4,23.0,56,30.39,10.0,SE,4.6,-,N/A,,Clear,130,2013-10-26 04:55:00
10:15 PM,39.2,24.8,56,30.39,10.0,SE,4.6,-,N/A,,Clear,140,2013-10-26 05:15:00
10:35 PM,39.2,26.6,61,30.39,10.0,SE,4.6,-,N/A,,Clear,130,2013-10-26 05:35:00
10:55 PM,39.2,26.6,61,30.39,10.0,SE,3.5,-,N/A,,Clear,130,2013-10-26 05:55:00
11:15 PM,35.6,24.8,65,30.39,10.0,SSE,5.8,-,N/A,,Clear,150,2013-10-26 06:15:00
11:35 PM,37.4,24.8,60,30.39,10.0,SSE,6.9,-,N/A,,Clear,150,2013-10-26 06:35:00
11:55 PM,35.6,24.8,65,30.38,10.0,SSE,8.1,-,N/A,,Clear,150,2013-10-26 06:55:00